Dutch Harbor, AK

6:24 PM AKDT on April 23, 2017 (GMT -0800)
Unalaska

Weather History for PADU - February, 2014

Change the Weather History Date:

Tuesday, February 4, 2014

  Actual Average Record
Temperature  
Mean Temperature 40 °F -  
Max Temperature 43 °F 35 °F 45 °F (1988)
Min Temperature 37 °F 25 °F -41 °F (1997)
Degree Days  
Heating Degree Days 25    
Moisture  
Dew Point 37 °F    
Average Humidity 92    
Maximum Humidity 100    
Minimum Humidity 87    
Precipitation  
Precipitation 0.97 in - - ()
Sea Level Pressure  
Sea Level Pressure 29.98 in    
Wind  
Wind Speed 12 mph (North)    
Max Wind Speed 25 mph    
Max Gust Speed 52 mph    
Visibility 4 miles    
Events Rain    
Averages and records for this station are not official NWS values.
T = Trace of Precipitation, MM = Missing Value Source: NWS Daily Summary

Daily Weather History Graph

Daily Weather History Graph

Search for Another Location

Airport or City:

Trip Planner

Search our weather history database for the weather conditions in past years. The results will help you decide how hot, cold, wet, or windy it might be!

Date:

Astronomy

Feb. 04, 2014 Rise Set
Actual Time 9:46 AM AKST 6:54 PM AKST
Civil Twilight 9:08 AM AKST 7:32 PM AKST
Nautical Twilight 8:26 AM AKST 8:14 PM AKST
Astronomical Twilight 7:45 AM AKST 8:55 PM AKST
Moon 11:35 AM AKST (2/4) 12:49 AM AKST (2/4)
Length of Visible Light 10h 23m
Length of Day
9h 07m
Waxing Crescent, 30% of the Moon is Illuminated
Feb 4
Waxing Crescent
Feb 6
First Quarter
Feb 14
Full
Feb 22
Last Quarter
Feb 28
New

Hourly Weather History & Observations

Time (AKST) Temp. Windchill Dew Point Humidity Pressure Visibility Wind Dir Wind Speed Gust Speed Precip Events Conditions
12:13 AM 37.4 °F 28.5 °F 35.6 °F 93% 29.86 in 3.0 mi NNW 15.0 mph 26.5 mph 0.01 in Rain Light Rain
12:19 AM 37.4 °F 30.3 °F 35.6 °F 93% 29.86 in 2.5 mi North 10.4 mph 26.5 mph 0.01 in Rain Light Rain
12:56 AM 37.9 °F 30.5 °F 36.0 °F 93% 29.89 in 3.0 mi North 11.5 mph 28.8 mph 0.02 in Rain Light Rain
1:18 AM 37.4 °F 28.2 °F 35.6 °F 93% 29.87 in 2.5 mi NNW 16.1 mph 25.3 mph 0.00 in Rain Light Rain
1:52 AM 37.4 °F 31.4 °F 35.6 °F 93% 29.87 in 3.0 mi North 8.1 mph 26.5 mph 0.01 in Rain Light Rain
1:56 AM 37.9 °F 29.6 °F 36.0 °F 93% 29.88 in 4.0 mi NW 13.8 mph 28.8 mph 0.01 in Rain Light Rain
2:36 AM 37.4 °F 27.8 °F 35.6 °F 93% 29.87 in 2.0 mi North 17.3 mph 33.4 mph 0.01 in Rain Light Rain
2:56 AM 37.9 °F 26.6 °F 36.0 °F 93% 29.88 in 2.0 mi NNW 25.3 mph 33.4 mph 0.01 in Rain Light Rain
3:49 AM 37.4 °F 26.4 °F 35.6 °F 93% 29.85 in 4.0 mi NNW 23.0 mph 39.1 mph 0.01 in Rain Light Rain
3:56 AM 37.9 °F 27.6 °F 35.1 °F 89% 29.88 in 3.0 mi NW 20.7 mph 33.4 mph 0.01 in Rain Light Rain
4:56 AM 37.9 °F 29.6 °F 35.1 °F 89% 29.89 in 5.0 mi North 13.8 mph 27.6 mph 0.02 in Rain Light Rain
5:53 AM 37.4 °F 28.2 °F 35.6 °F 93% 29.87 in 2.0 mi NNW 16.1 mph 25.3 mph 0.03 in Rain Light Rain
5:56 AM 37.9 °F 30.5 °F 36.0 °F 93% 29.88 in 2.0 mi West 11.5 mph 25.3 mph 0.03 in Rain Light Rain
5:59 AM 37.4 °F 28.2 °F 35.6 °F 93% 29.87 in 2.0 mi North 16.1 mph 25.3 mph 0.00 in Rain Light Rain
6:24 AM 37.4 °F 32.1 °F 35.6 °F 93% 29.88 in 2.5 mi Variable 6.9 mph 24.2 mph 0.01 in Rain Light Rain
6:32 AM 37.4 °F 27.5 °F 35.6 °F 93% 29.88 in 2.5 mi NNE 18.4 mph 51.8 mph 0.02 in Rain Light Rain
6:41 AM 37.4 °F 28.5 °F 35.6 °F 93% 29.88 in 4.0 mi North 15.0 mph 31.1 mph 0.03 in Rain Light Rain
6:56 AM 37.9 °F 29.6 °F 35.1 °F 89% 29.90 in 6.0 mi North 13.8 mph 32.2 mph 0.05 in Rain Light Rain
7:15 AM 37.4 °F 26.9 °F 35.6 °F 93% 29.87 in 6.0 mi NNW 20.7 mph 35.7 mph 0.02 in Rain Light Rain
7:56 AM 39.0 °F 30.6 °F 36.0 °F 89% 29.91 in 6.0 mi North 15.0 mph 26.5 mph 0.07 in Rain Light Rain
7:59 AM 37.4 °F 26.1 °F 35.6 °F 93% 29.88 in 6.0 mi NW 24.2 mph 43.7 mph 0.00 in Rain Light Rain
8:56 AM 39.0 °F 34.0 °F 36.0 °F 89% 29.92 in 6.0 mi Variable 6.9 mph 32.2 mph 0.06 in Rain Light Rain
8:57 AM 39.2 °F 35.0 °F 35.6 °F 87% 29.90 in 3.0 mi Variable 5.8 mph 32.2 mph 0.00 in Rain Light Rain
8:59 AM 39.2 °F 33.0 °F 35.6 °F 87% 29.90 in 3.0 mi North 9.2 mph 32.2 mph 0.00 in Rain Light Rain
9:17 AM 39.2 °F 32.5 °F 37.4 °F 93% 29.91 in 6.0 mi NNE 10.4 mph 32.2 mph 0.03 in Rain Light Rain
9:25 AM 39.2 °F 33.0 °F 35.6 °F 87% 29.91 in 5.0 mi East 9.2 mph 23.0 mph 0.04 in Rain Rain
9:56 AM 39.0 °F 34.0 °F 36.0 °F 89% 29.94 in 4.0 mi Variable 6.9 mph 29.9 mph 0.10 in Rain Rain
10:14 AM 39.2 °F 33.0 °F 35.6 °F 87% 29.93 in 5.0 mi NNE 9.2 mph 23.0 mph 0.05 in Rain Rain
10:56 AM 39.0 °F 33.4 °F 36.0 °F 89% 29.95 in 5.0 mi North 8.1 mph 29.9 mph 0.13 in Rain Light Rain
10:59 AM 39.2 °F 32.5 °F 35.6 °F 87% 29.93 in 6.0 mi NE 10.4 mph 29.9 mph 0.01 in Rain Light Rain
11:21 AM 39.2 °F 33.6 °F 35.6 °F 87% 29.94 in 8.0 mi NNW 8.1 mph - 0.03 in Rain Light Rain
11:35 AM 39.2 °F 32.5 °F 35.6 °F 87% 29.94 in 6.0 mi NNE 10.4 mph 27.6 mph 0.05 in Rain Light Rain
11:56 AM 39.0 °F 32.8 °F 36.0 °F 89% 29.97 in 6.0 mi NNE 9.2 mph 23.0 mph 0.10 in Rain Rain
12:48 PM 39.2 °F 34.2 °F 37.4 °F 93% 29.95 in 4.0 mi Variable 6.9 mph - 0.11 in Rain Rain
12:56 PM 39.0 °F 31.0 °F 37.0 °F 93% 29.97 in 5.0 mi ENE 13.8 mph 20.7 mph 0.13 in Rain Rain
1:23 PM 39.2 °F 32.0 °F 37.4 °F 93% 29.95 in 6.0 mi NE 11.5 mph 23.0 mph 0.08 in Rain Light Rain
1:43 PM 39.2 °F 31.6 °F 37.4 °F 93% 29.96 in 7.0 mi NE 12.7 mph 20.7 mph 0.11 in Rain Light Rain
1:56 PM 39.9 °F 34.5 °F 37.0 °F 89% 29.98 in 7.0 mi ENE 8.1 mph 18.4 mph 0.11 in Rain Light Rain
2:10 PM 39.2 °F 35.9 °F 37.4 °F 93% 29.96 in 3.0 mi Variable 4.6 mph 20.7 mph 0.01 in Rain Light Rain
2:26 PM 39.2 °F 33.0 °F 37.4 °F 93% 29.96 in 5.0 mi NNW 9.2 mph - 0.01 in Rain Light Rain
2:40 PM 39.2 °F 32.5 °F 37.4 °F 93% 29.96 in 4.0 mi NNW 10.4 mph - 0.01 in Rain Light Rain
2:56 PM 39.9 °F 35.8 °F 37.9 °F 93% 29.99 in 3.0 mi NNW 5.8 mph - 0.01 in Rain Light Rain
3:07 PM 39.2 °F 35.9 °F 37.4 °F 93% 29.97 in 3.0 mi North 4.6 mph - 0.00 in Rain Light Rain
3:08 PM 39.2 °F 35.9 °F 37.4 °F 93% 29.97 in 3.0 mi North 4.6 mph - 0.00 in Rain Light Rain
3:11 PM 39.2 °F 35.9 °F 37.4 °F 93% 29.97 in 3.0 mi Variable 4.6 mph - 0.00 in Rain Light Rain
3:30 PM 39.2 °F 33.6 °F 37.4 °F 93% 29.97 in 2.0 mi NNW 8.1 mph - 0.00 in Rain Light Rain
3:50 PM 39.2 °F 31.6 °F 37.4 °F 93% 29.98 in 2.0 mi NNW 12.7 mph - 0.00 in Rain Light Rain
3:56 PM 39.9 °F 33.4 °F 37.9 °F 93% 30.00 in 2.0 mi NNW 10.4 mph - 0.00 in Rain Light Rain
4:08 PM 39.2 °F 35.0 °F 37.4 °F 93% 29.98 in 1.5 mi NNW 5.8 mph - 0.00 in Rain Light Rain
4:19 PM 39.2 °F 35.0 °F 39.2 °F 100% 29.99 in 2.0 mi North 5.8 mph - 0.00 in Rain Light Rain
4:42 PM 39.2 °F 37.0 °F 39.2 °F 100% 30.00 in 2.0 mi Variable 3.5 mph - 0.01 in Rain Light Rain
4:56 PM 41.0 °F 39.0 °F 39.0 °F 93% 30.03 in 2.0 mi NNW 3.5 mph - 0.01 in Rain Light Rain
5:06 PM 39.2 °F - 39.2 °F 100% 30.02 in 1.8 mi Calm Calm - 0.00 in Rain Light Rain
5:20 PM 39.2 °F 35.9 °F 37.4 °F 93% 30.02 in 1.2 mi WNW 4.6 mph - 0.00 in Rain Light Rain
5:46 PM 39.2 °F 35.0 °F 37.4 °F 93% 30.04 in 1.5 mi West 5.8 mph - 0.01 in Rain Light Rain
5:56 PM 39.0 °F 34.8 °F 37.0 °F 93% 30.06 in 1.5 mi West 5.8 mph - 0.01 in Rain Light Rain
6:46 PM 39.2 °F - 37.4 °F 93% 30.07 in 1.2 mi Calm Calm - 0.02 in Rain Light Rain
6:54 PM 39.2 °F - 37.4 °F 93% 30.07 in 2.0 mi Calm Calm - 0.02 in Rain Light Rain
6:56 PM 39.0 °F 36.8 °F 37.9 °F 96% 30.09 in 2.0 mi Variable 3.5 mph - 0.02 in Rain Light Rain
7:23 PM 39.2 °F - 37.4 °F 93% 30.09 in 5.0 mi Calm Calm - 0.01 in Rain Light Rain
7:39 PM 39.2 °F - 37.4 °F 93% 30.10 in 3.0 mi Calm Calm - 0.01 in Rain Light Rain
7:56 PM 41.0 °F 35.2 °F 39.9 °F 96% 30.12 in 3.0 mi ENE 9.2 mph - 0.02 in Rain Light Rain
8:12 PM 42.8 °F 36.6 °F 39.2 °F 87% 30.11 in 4.0 mi ENE 11.5 mph - 0.01 in Rain Light Rain
8:56 PM 42.1 °F 34.9 °F 39.9 °F 92% 30.15 in 3.0 mi NE 13.8 mph - 0.03 in Rain Light Rain
9:18 PM 42.8 °F 35.4 °F 39.2 °F 87% 30.15 in 2.0 mi NE 15.0 mph - 0.01 in Rain Light Rain
9:27 PM 42.8 °F 35.4 °F 39.2 °F 87% 30.15 in 4.0 mi ENE 15.0 mph - 0.01 in Rain Light Rain
9:56 PM 42.1 °F 36.1 °F 39.9 °F 92% 30.17 in 8.0 mi ENE 10.4 mph - 0.01 in Rain Light Rain
10:11 PM 42.8 °F 41.1 °F 39.2 °F 87% 30.15 in 6.0 mi Variable 3.5 mph - 0.00 in Rain Light Rain
10:25 PM 42.8 °F 37.0 °F 39.2 °F 87% 30.17 in 9.0 mi ENE 10.4 mph - 0.00 in Rain Light Rain
10:33 PM 42.8 °F 38.6 °F 39.2 °F 87% 30.17 in 7.0 mi ENE 6.9 mph 20.7 mph 0.00 in Rain Light Rain
10:56 PM 43.0 °F 37.7 °F 39.9 °F 89% 30.20 in 6.0 mi East 9.2 mph 18.4 mph 0.00 in Rain Light Rain
11:08 PM 42.8 °F 38.6 °F 39.2 °F 87% 30.19 in 10.0 mi ESE 6.9 mph - 0.01 in Rain Light Rain
11:56 PM 43.0 °F 36.4 °F 39.9 °F 89% 30.23 in 9.0 mi SE 12.7 mph 19.6 mph 0.01 in   Overcast